Weather History for MMVR - January, 2013

Change the Weather History Date:

Thursday, January 17, 2013

  Actual Average Record
Temperature  
Mean Temperature 65 °F -  
Max Temperature 68 °F 79 °F 86 °F (1999)
Min Temperature 62 °F 63 °F 53 °F (2007)
Growing Degree Days 15 (Base 50)    
Moisture  
Dew Point 45 °F    
Average Humidity 51    
Maximum Humidity 68    
Minimum Humidity 35    
Precipitation  
Precipitation 0.00 in - - ()
Sea Level Pressure  
Sea Level Pressure 30.36 in    
Wind  
Wind Speed 11 mph ()    
Max Wind Speed 20 mph    
Max Gust Speed 25 mph    
Visibility 5.9 miles    
Events      
Averages and records for this station are not official NWS values.
T = Trace of Precipitation, MM = Missing Value Source: Averaged Metar Reports

Daily Weather History Graph

Daily Weather History Graph

Search for Another Location

Airport or City:

Trip Planner

Search our weather history database for the weather conditions in past years. The results will help you decide how hot, cold, wet, or windy it might be!

Date:

Astronomy

Jan. 17, 2013 Rise Set
Actual Time 7:01 AM CST 6:08 PM CST
Civil Twilight 6:37 AM CST 6:32 PM CST
Nautical Twilight 6:10 AM CST 6:59 PM CST
Astronomical Twilight 5:44 AM CST 7:25 PM CST
Moon 11:08 AM CST (1/17) 11:57 PM CST (1/17)
Length of Visible Light 11h 54m
Length of Day
11h 07m
Waxing Crescent, 38% of the Moon is Illuminated
Jan 17
Waxing Crescent
Jan 18
First Quarter
Jan 26
Full
Feb 3
Last Quarter
Feb 10
New

Hourly Weather History & Observations

Time (CST) Temp. Dew Point Humidity Pressure Visibility Wind Dir Wind Speed Gust Speed Precip Events Conditions
4:50 AM 62.6 °F 51.8 °F 68% 30.30 in 5.0 mi NNE 19.6 mph - N/A   Overcast
5:43 AM 62.6 °F 51.8 °F 68% 30.27 in 5.0 mi NE 13.8 mph - N/A   Overcast
6:42 AM 62.6 °F 50.0 °F 63% 30.33 in 5.0 mi North 10.4 mph - N/A   Overcast
7:45 AM 62.6 °F 51.8 °F 68% 30.37 in 5.0 mi North 11.5 mph 23.0 mph N/A   Overcast
8:45 AM 62.6 °F 51.8 °F 68% 30.36 in 5.0 mi North 15.0 mph - N/A   Overcast
9:43 AM 64.4 °F 50.0 °F 59% 30.41 in 4.0 mi North 10.4 mph - N/A   Overcast
10:42 AM 64.4 °F 48.2 °F 56% 30.42 in 4.0 mi North 12.7 mph 25.3 mph N/A   Overcast
11:43 AM 66.2 °F 42.8 °F 43% 30.37 in 6.0 mi North 15.0 mph - N/A   Overcast
12:44 PM 66.2 °F 44.6 °F 46% 30.38 in 6.0 mi North 16.1 mph - N/A   Overcast
1:44 PM 68.0 °F 44.6 °F 43% 30.35 in 6.0 mi NNE 11.5 mph - N/A   Overcast
2:43 PM 68.0 °F 44.6 °F 43% 30.30 in 6.0 mi NNE 13.8 mph 25.3 mph N/A   Overcast
3:47 PM 66.2 °F 42.8 °F 43% 30.34 in 6.0 mi North 16.1 mph - N/A   Overcast
4:46 PM 66.2 °F 41.0 °F 40% 30.36 in 7.0 mi North 10.4 mph - N/A   Overcast
5:42 PM 66.2 °F 42.8 °F 43% 30.31 in 7.0 mi North 11.5 mph 23.0 mph N/A   Overcast
6:43 PM 66.2 °F 37.4 °F 35% 30.38 in 7.0 mi North 11.5 mph 23.0 mph N/A   Overcast
7:46 PM 64.4 °F 39.2 °F 40% 30.41 in 7.0 mi North 11.5 mph 23.0 mph N/A   Overcast
8:46 PM 62.6 °F 48.2 °F 59% 30.37 in 7.0 mi NNW 5.8 mph - N/A   Overcast
10:01 PM 62.6 °F 42.8 °F 48% 30.43 in 7.0 mi North 6.9 mph - N/A   Mostly Cloudy
10:49 PM 62.6 °F 35.6 °F 37% 30.43 in 7.0 mi North 6.9 mph - N/A   Mostly Cloudy